Location: Alpha Ridge Park
(39.3209°N, 76.9128°W)
Time: 20:23:50
(UTC-04:00)

Vanguard 2 Rocket - Pass Details

Date: 28 May 2019
Orbit: 554 x 3326 km, 32.9° (Epoch: 20 June)

Event Time Altitude Azimuth Distance (km) Brightness Sun altitude
Rises 06:57:32 0° 254° (WSW) 7,312 10.8 12.0°
Reaches altitude 10° 07:02:38 10° 252° (WSW) 6,234 10.6 13.0°
Maximum altitude 07:21:41 67° 175° (S) 2,749 9.5 16.5°
Drops below altitude 10° 07:33:43 10° 97° (E) 4,153 11.9 18.8°
Sets 07:36:24 0° 94° (E) 4,843 12.0 19.3°
